NOAA 16 DEB, 42358

Orbit data source: Space-Track

NOAA 16 DEB, 42358 is space debris in SSO originally from a launch on Thu, 21 Sep 2000 UTC launched from the Air Force Western Test Range (AFWTR). Debris objects in space refer to the collection of defunct objects orbiting the Earth. Examples of debris include non-operational satellites, rocket bodies, and fragments generated from explosions, collisions, or faulty payload assembly.

Loading next visibility...
Identifier
42358, 2000-055RA
Orbit
SSO
Country
Flag of USUS
Related business
Manufacturer
Unknown
Mission
Spacecraft
Bus & Motor
Unknown
Mass
Unknown
Launch date (UTC)
2000-09-21 (25 years ago)
Launch vehicle
Unknown
Launch site
Air Force Western Test Range (AFWTR)
Object type
Payload
Rocket body
Debris
Shape & HBR
Unknown shape, 0.1 m
Radar Cross Section
Small (<0.1 m²)

Expand to show TLE details & history
Last TLE update: 5 days ago

TLE from 5 days ago
0 NOAA 16 DEB
1 42358U 00055RA  26033.83196815  .00022380  00000-0  46834-2 0  9999
2 42358  98.8544 167.3865 0023985   2.9668 357.1668 14.59590805481438
Epoch: 2026-02-02T19:58Z
TLE epoch observation values (Epoch: 2026-02-02T19:58:02.048Z)
Latitude
0.00002°
Longitude
94.85636°
Altitude
680.513 km
Speed
7.525 km/s
True Right ascension
11h 09m 32s
True Declination
0° 00' 00"
Sunlit
Object was in full shadow at epoch
Visualization orbit readout
Latitude
Unknown
Longitude
Unknown
Altitude
Unknown
Speed
Unknown
Apparent Right ascension
Unknown
Apparent Declination
Unknown
Sunlit
N/A
Visualization observer readout
Local Sidereal Time
14:04:26
Azimuth
Unknown
Elevation
Unknown
Doppler factor
Unknown
Orbital elements
Apogee altitude
708.565 km
Perigee altitude
674.652 km
Semi-major axis
7,069.746 km
Eccentricity
0.0024
Inclination
98.8544°
RAAN
167.3865°
Arg. of periapsis
2.9668°
True anomaly
357.15317°
Mean anomaly
357.1668°
Eccentric anomaly
357.15999°
Mean motion
3.65122 °/min
Orbital period
98.6 mins
BSTAR
0.0046834
Loading maneuver chart data...
Computing Atmospheric mass density...
Loading historical data...
Loading historical data...
Loading historical data...
Loading historical data...
Loading historical data...
Loading historical data...
Loading historical data...

Documentation

Showing up to 5 results
|